Time,TemperatureF,DewpointF,PressureIn,WindDirection,WindDirectionDegrees,WindSpeedMPH,WindSpeedGustMPH,Humidity,HourlyPrecipIn,Conditions,Clouds,dailyrainin,SoftwareType,DateUTC
2013-01-21 00:00:00,24.0,-5.0,-100.00,NNW,328,10.0,15.0,27,-99.99,,,-99.99,,2013-01-21 07:00:00,
2013-01-21 00:43:00,24.0,-5.0,-100.00,NNW,328,10.0,15.0,27,-99.99,,,-99.99,,2013-01-21 07:43:00,
2013-01-21 00:53:00,24.0,-5.0,-100.00,NNW,328,10.0,15.0,27,-99.99,,,-99.99,,2013-01-21 07:53:00,
2013-01-21 01:00:00,23.0,-3.0,-100.00,WNW,296,6.0,13.0,31,-99.99,,,-99.99,,2013-01-21 08:00:00,
2013-01-21 01:43:00,23.0,-3.0,-100.00,WNW,296,6.0,13.0,31,-99.99,,,-99.99,,2013-01-21 08:43:00,
2013-01-21 01:53:00,23.0,-3.0,-100.00,WNW,296,6.0,13.0,31,-99.99,,,-99.99,,2013-01-21 08:53:00,
2013-01-21 02:00:00,24.0,-2.0,-100.00,ENE,77,3.0,11.0,31,-99.99,,,-99.99,,2013-01-21 09:00:00,
2013-01-21 02:43:00,24.0,-2.0,-100.00,ENE,77,3.0,11.0,31,-99.99,,,-99.99,,2013-01-21 09:43:00,
2013-01-21 02:53:00,24.0,-2.0,-100.00,ENE,77,3.0,11.0,31,-99.99,,,-99.99,,2013-01-21 09:53:00,
2013-01-21 03:00:00,24.0,-2.0,-100.00,NNE,27,7.0,10.0,31,-99.99,,,-99.99,,2013-01-21 10:00:00,
2013-01-21 03:43:00,24.0,-2.0,-100.00,NNE,27,7.0,10.0,31,-99.99,,,-99.99,,2013-01-21 10:43:00,
2013-01-21 03:53:00,24.0,-2.0,-100.00,NNE,27,7.0,10.0,31,-99.99,,,-99.99,,2013-01-21 10:53:00,
2013-01-21 04:00:00,21.0,-2.0,-100.00,North,9,8.0,15.0,35,-99.99,,,-99.99,,2013-01-21 11:00:00,
2013-01-21 04:43:00,21.0,-2.0,-100.00,North,9,8.0,15.0,35,-99.99,,,-99.99,,2013-01-21 11:43:00,
2013-01-21 04:53:00,21.0,-2.0,-100.00,North,9,8.0,15.0,35,-99.99,,,-99.99,,2013-01-21 11:53:00,
2013-01-21 05:00:00,22.0,-4.0,-100.00,NNW,347,8.0,13.0,31,-99.99,,,-99.99,,2013-01-21 12:00:00,
2013-01-21 05:43:00,22.0,-4.0,-100.00,NNW,347,8.0,13.0,31,-99.99,,,-99.99,,2013-01-21 12:43:00,
2013-01-21 05:53:00,22.0,-4.0,-100.00,NNW,347,8.0,13.0,31,-99.99,,,-99.99,,2013-01-21 12:53:00,
2013-01-21 06:00:00,25.0,-7.0,-100.00,NW,309,5.0,11.0,24,-99.99,,,-99.99,,2013-01-21 13:00:00,
2013-01-21 06:43:00,25.0,-7.0,-100.00,NW,309,5.0,11.0,24,-99.99,,,-99.99,,2013-01-21 13:43:00,
2013-01-21 06:54:00,25.0,-7.0,-100.00,NW,309,5.0,11.0,24,-99.99,,,-99.99,,2013-01-21 13:54:00,
2013-01-21 07:00:00,25.0,-5.0,-100.00,NW,326,7.0,11.0,26,-99.99,,,-99.99,,2013-01-21 14:00:00,
2013-01-21 07:43:00,25.0,-5.0,-100.00,NW,326,7.0,11.0,26,-99.99,,,-99.99,,2013-01-21 14:43:00,
2013-01-21 07:53:00,25.0,-5.0,-100.00,NW,326,7.0,11.0,26,-99.99,,,-99.99,,2013-01-21 14:53:00,
2013-01-21 08:00:00,25.0,-5.0,-100.00,NW,320,8.0,15.0,27,-99.99,,,-99.99,,2013-01-21 15:00:00,
2013-01-21 08:43:00,25.0,-5.0,-100.00,NW,320,8.0,15.0,27,-99.99,,,-99.99,,2013-01-21 15:43:00,
2013-01-21 08:53:00,25.0,-5.0,-100.00,NW,320,8.0,15.0,27,-99.99,,,-99.99,,2013-01-21 15:53:00,
2013-01-21 09:00:00,25.0,-4.0,-100.00,NNE,12,5.0,11.0,27,-99.99,,,-99.99,,2013-01-21 16:00:00,
2013-01-21 09:44:00,25.0,-4.0,-100.00,NNE,12,5.0,11.0,27,-99.99,,,-99.99,,2013-01-21 16:44:00,
2013-01-21 09:53:00,25.0,-4.0,-100.00,NNE,12,5.0,11.0,27,-99.99,,,-99.99,,2013-01-21 16:53:00,
2013-01-21 10:00:00,27.0,-2.0,-100.00,NNW,336,4.0,12.0,27,-99.99,,,-99.99,,2013-01-21 17:00:00,
2013-01-21 10:43:00,27.0,-2.0,-100.00,NNW,336,4.0,12.0,27,-99.99,,,-99.99,,2013-01-21 17:43:00,
2013-01-21 10:53:00,27.0,-2.0,-100.00,NNW,336,4.0,12.0,27,-99.99,,,-99.99,,2013-01-21 17:53:00,
2013-01-21 11:00:00,29.0,-1.0,-100.00,NW,322,8.0,18.0,26,-99.99,,,-99.99,,2013-01-21 18:00:00,
2013-01-21 11:43:00,29.0,-1.0,-100.00,NW,322,8.0,18.0,26,-99.99,,,-99.99,,2013-01-21 18:43:00,
2013-01-21 11:53:00,29.0,-1.0,-100.00,NW,322,8.0,18.0,26,-99.99,,,-99.99,,2013-01-21 18:53:00,
2013-01-21 12:00:00,30.0,-1.0,-100.00,WNW,303,6.0,14.0,26,-99.99,,,-99.99,,2013-01-21 19:00:00,
2013-01-21 12:43:00,30.0,-1.0,-100.00,WNW,303,6.0,14.0,26,-99.99,,,-99.99,,2013-01-21 19:43:00,
2013-01-21 12:53:00,30.0,-1.0,-100.00,WNW,303,6.0,14.0,26,-99.99,,,-99.99,,2013-01-21 19:53:00,
2013-01-21 13:00:00,31.0,-1.0,-100.00,NW,322,8.0,17.0,25,-99.99,,,-99.99,,2013-01-21 20:00:00,
2013-01-21 13:43:00,31.0,-1.0,-100.00,NW,322,8.0,17.0,25,-99.99,,,-99.99,,2013-01-21 20:43:00,
2013-01-21 13:53:00,31.0,-1.0,-100.00,NW,322,8.0,17.0,25,-99.99,,,-99.99,,2013-01-21 20:53:00,
2013-01-21 14:00:00,32.0,-3.0,-100.00,North,353,8.0,20.0,21,-99.99,,,-99.99,,2013-01-21 21:00:00,
2013-01-21 14:43:00,32.0,-3.0,-100.00,North,353,8.0,20.0,21,-99.99,,,-99.99,,2013-01-21 21:43:00,
2013-01-21 14:54:00,32.0,-3.0,-100.00,North,353,8.0,20.0,21,-99.99,,,-99.99,,2013-01-21 21:54:00,
2013-01-21 15:00:00,31.0,-3.0,-100.00,North,354,10.0,23.0,22,-99.99,,,-99.99,,2013-01-21 22:00:00,
2013-01-21 15:43:00,31.0,-3.0,-100.00,North,354,10.0,23.0,22,-99.99,,,-99.99,,2013-01-21 22:43:00,
2013-01-21 15:53:00,31.0,-3.0,-100.00,North,354,10.0,23.0,22,-99.99,,,-99.99,,2013-01-21 22:53:00,
2013-01-21 16:00:00,31.0,-3.0,-100.00,NNW,342,7.0,18.0,22,-99.99,,,-99.99,,2013-01-21 23:00:00,
2013-01-21 16:43:00,31.0,-3.0,-100.00,NNW,342,7.0,18.0,22,-99.99,,,-99.99,,2013-01-21 23:43:00,
2013-01-21 16:53:00,31.0,-3.0,-100.00,NNW,342,7.0,18.0,22,-99.99,,,-99.99,,2013-01-21 23:53:00,
2013-01-21 17:00:00,29.0,-2.0,-100.00,NNW,338,11.0,22.0,25,-99.99,,,-99.99,,2013-01-22 00:00:00,
2013-01-21 17:43:00,29.0,-2.0,-100.00,NNW,338,11.0,22.0,25,-99.99,,,-99.99,,2013-01-22 00:43:00,
2013-01-21 17:53:00,29.0,-2.0,-100.00,NNW,338,11.0,22.0,25,-99.99,,,-99.99,,2013-01-22 00:53:00,
2013-01-21 18:00:00,29.0,-1.0,-100.00,North,7,11.0,23.0,26,-99.99,,,-99.99,,2013-01-22 01:00:00,
2013-01-21 18:43:00,29.0,-1.0,-100.00,North,7,11.0,23.0,26,-99.99,,,-99.99,,2013-01-22 01:43:00,
2013-01-21 18:52:00,29.0,-1.0,-100.00,North,7,11.0,23.0,26,-99.99,,,-99.99,,2013-01-22 01:52:00,
2013-01-21 19:00:00,28.0,-2.0,-100.00,North,2,12.0,24.0,26,-99.99,,,-99.99,,2013-01-22 02:00:00,
2013-01-21 19:43:00,28.0,-2.0,-100.00,North,2,12.0,24.0,26,-99.99,,,-99.99,,2013-01-22 02:43:00,
2013-01-21 19:53:00,28.0,-2.0,-100.00,North,2,12.0,24.0,26,-99.99,,,-99.99,,2013-01-22 02:53:00,
2013-01-21 20:00:00,28.0,-6.0,-100.00,North,358,20.0,37.0,21,-99.99,,,-99.99,,2013-01-22 03:00:00,
2013-01-21 20:43:00,28.0,-6.0,-100.00,North,358,20.0,37.0,21,-99.99,,,-99.99,,2013-01-22 03:43:00,
2013-01-21 20:53:00,28.0,-6.0,-100.00,North,358,20.0,37.0,21,-99.99,,,-99.99,,2013-01-22 03:53:00,
2013-01-21 21:00:00,27.0,-10.0,-100.00,North,6,19.0,32.0,19,-99.99,,,-99.99,,2013-01-22 04:00:00,
2013-01-21 21:42:00,27.0,-10.0,-100.00,North,6,19.0,32.0,19,-99.99,,,-99.99,,2013-01-22 04:42:00,
2013-01-21 21:52:00,27.0,-10.0,-100.00,North,6,19.0,32.0,19,-99.99,,,-99.99,,2013-01-22 04:52:00,
2013-01-21 22:00:00,28.0,-17.0,-100.00,North,3,22.0,37.0,12,-99.99,,,-99.99,,2013-01-22 05:00:00,
2013-01-21 22:43:00,28.0,-17.0,-100.00,North,3,22.0,37.0,12,-99.99,,,-99.99,,2013-01-22 05:43:00,
2013-01-21 22:53:00,28.0,-17.0,-100.00,North,3,22.0,37.0,12,-99.99,,,-99.99,,2013-01-22 05:53:00,
2013-01-21 23:00:00,28.0,-13.0,-100.00,North,359,18.0,37.0,15,-99.99,,,-99.99,,2013-01-22 06:00:00,
2013-01-21 23:43:00,28.0,-13.0,-100.00,North,359,18.0,37.0,15,-99.99,,,-99.99,,2013-01-22 06:43:00,
2013-01-21 23:53:00,28.0,-13.0,-100.00,North,359,18.0,37.0,15,-99.99,,,-99.99,,2013-01-22 06:53:00,